sanya , China , ASIA

  • Wednesday
    September 18

      Cloudy

      77 °F

      Northeast

      3~4L 

  • Thursday
    September 19

    Thundershower  Cloudy

    90 °F  77 °F

    East  No wind

    3~4L    

  • Friday
    September 20

    Cloudy  Cloudy

    90 °F  75 °F

    No wind  No wind

        

  • Saturday
    September 21

    Cloudy  Cloudy

    90 °F  73 °F

    No wind  No wind

        

  • Sunday
    September 22

    Thundershower  Cloudy

    88 °F  75 °F

    No wind  No wind

        

  • Monday
    September 23

    Thundershower  Sunny

    86 °F  73 °F

    No wind  No wind

        

  • Tuesday
    September 24

    Light rain  Cloudy

    88 °F  75 °F

    No wind  No wind

        

Date   Weather Temperature Humidity Total_rain Visibility Wind
23:00 Cloudy 79°F 93% 0mm 999.9km Northeast  6.9m/s
02:00 Cloudy 77°F 93.2% 0mm 999.9km Northeast  8.0m/s
05:00 Cloudy 78°F 94.1% 0mm 999.9km Northeast  7.8m/s
08:00 Cloudy 80°F 93.3% 0mm 999.9km Northeast  6.2m/s
11:00 Thundershower 89°F 85.9% 3.9mm 999.9km Northeast  6.3m/s
14:00 Thundershower 86°F 87.8% 2.6mm 999.9km Northeast  6.2m/s
17:00 Thundershower 83°F 90.4% 1.7mm 999.9km Northeast  6.5m/s
20:00 Overcast 83°F 80.7% 0mm 999.9km Northeast  6.2m/s
23:00 Cloudy 82°F 93.4% 0mm 999.9km Northeast  6.7m/s
02:00 Cloudy 77°F 94.3% 0mm 999.9km Northeast  6.8m/s
05:00 Cloudy 77°F 94.5% 0mm 999.9km Northeast  5.6m/s
08:00 Cloudy 84°F 93.1% 0mm 999.9km Northeast  4.6m/s
11:00 Cloudy 88°F 85.7% 0mm 999.9km Northeast  4.1m/s
14:00 Cloudy 89°F 87.5% 0mm 999.9km Northeast  5.0m/s
17:00 Cloudy 83°F 90.3% 0mm 999.9km Northeast  3.3m/s
20:00 Cloudy 79°F 80.2% 0mm 999.9km Northeast  4.8m/s
23:00 Cloudy 77°F 91.3% 0mm 999.9km Northeast  4.2m/s
02:00 Cloudy 77°F 91.2% 0mm 999.9km Northeast  4.1m/s
05:00 Cloudy 77°F 91.2% 0mm 999.9km Northeast  4.9m/s
08:00 Cloudy 82°F 88.1% 0mm 999.9km Northeast  3.2m/s
11:00 Cloudy 89°F 85.1% 0mm 999.9km Northeast  2.9m/s
14:00 Cloudy 89°F 80.2% 0mm 999.9km Northeast  3.7m/s
17:00 Cloudy 85°F 76.2% 0mm 999.9km Northeast  3.5m/s
20:00 Cloudy 80°F 73% 0mm 999.9km Northeast  5.0m/s
23:00 Cloudy 78°F 90.6% 0mm 999.9km Northeast  3.2m/s
02:00 Cloudy 75°F 89.7% 0mm 999.9km Northeast  4.0m/s
05:00 Cloudy 76°F 88.7% 0mm 999.9km Northeast  4.6m/s
08:00 Cloudy 78°F 87.8% 0mm 999.9km Northeast  3.7m/s
11:00 Thundershower 88°F 81.8% 2.3mm 999.9km Northeast  3.0m/s
14:00 Thundershower 86°F 77.1% 2.3mm 999.9km Northeast  4.2m/s
17:00 Thundershower 86°F 73.5% 2.3mm 999.9km Northeast  3.9m/s
20:00 Thundershower 82°F 70.1% 2.3mm 999.9km Northeast  4.3m/s
23:00 Cloudy 79°F 86.3% 0mm 999.9km Northeast  4.8m/s
02:00 Cloudy 77°F 87.6% 0mm 999.9km Northeast  5.0m/s
05:00 Cloudy 78°F 88.5% 0mm 999.9km Northeast  4.9m/s
08:00 Cloudy 78°F 86.8% 0mm 999.9km Northeast  4.6m/s
11:00 Cloudy 87°F 79.5% 0mm 999.9km Northeast  4.4m/s
14:00 Overcast 87°F 76.8% 0mm 999.9km Northeast  4.6m/s
17:00 Thundershower 83°F 84.7% 1.6mm 999.9km Northeast  4.7m/s
20:00 Thundershower 81°F 72.2% 0.1mm 999.9km Northeast  5.0m/s
23:00 Sunny 78°F 86.9% 0mm 999.9km Northeast  5.8m/s
02:00 Sunny 79°F 87.3% 0mm 999.9km Northeast  5.5m/s
05:00 Sunny 75°F 89.3% 0mm 999.9km Northeast  4.8m/s
08:00 Sunny 81°F 84.1% 0mm 999.9km Northeast  5.6m/s
11:00 Light rain 88°F 83.8% 1.6mm 999.9km Northeast  4.9m/s
14:00 Overcast 87°F 81.4% 0mm 999.9km Northeast  5.2m/s
17:00 Light rain 85°F 85.6% 1.6mm 999.9km Northeast  4.0m/s
20:00 Overcast 80°F 89.7% 0mm 999.9km Northeast  5.2m/s
23:00 Cloudy 78°F 92.7% 0mm 999.9km Northeast  4.6m/s
02:00 Cloudy 77°F 92.5% 0mm 999.9km Northeast  4.0m/s
05:00 Cloudy 76°F 92.3% 0mm 999.9km Northeast  4.6m/s